Total_Precipitation_Accumulation
0.00 0.01 0.05 0.08 0.11 0.14 0.16 0.20 0.23 0.23 0.24 0.31 0.42 0.63 0.83 0.93 1.11 1.25 1.24 1.36 1.76 2.17 2.48 2.75 2.89 3.13 3.45 3.77 4.06 4.38 4.89 5.18 5.05 5.07 4.96 4.79 4.46 4.26 3.86 3.41 3.05 3.00 3.02 3.28
0.01 0.02 0.04 0.05 0.06 0.10 0.14 0.16 0.20 0.23 0.26 0.33 0.38 0.60 0.81 0.82 1.01 1.16 1.27 1.44 1.59 1.80 2.28 2.56 2.57 2.82 3.05 3.58 4.10 4.46 4.51 4.49 4.36 4.58 4.97 5.19 5.11 4.57 3.94 3.54 3.39 3.01 2.96 3.12
0.03 0.05 0.04 0.03 0.04 0.06 0.14 0.17 0.21 0.23 0.27 0.38 0.48 0.93 1.03 0.92 1.00 1.09 1.17 1.34 1.48 1.65 1.84 2.15 2.19 2.28 2.50 3.01 3.55 3.71 3.61 3.57 3.46 3.61 4.02 4.31 4.57 4.33 4.03 3.71 3.44 3.03 2.92 2.93
0.03 0.03 0.03 0.04 0.04 0.05 0.10 0.10 0.13 0.18 0.32 0.53 0.58 1.10 1.29 1.26 1.33 1.16 1.17 1.23 1.49 1.64 1.68 1.84 1.90 1.95 2.01 2.16 2.41 2.63 2.86 2.98 2.99 3.05 3.27 3.49 3.76 3.80 3.76 3.69 3.36 3.01 2.71 2.68
0.03 0.03 0.03 0.06 0.06 0.05 0.08 0.08 0.11 0.17 0.30 0.53 0.55 0.78 1.32 1.52 1.53 1.27 1.19 1.19 1.35 1.36 1.42 1.57 1.66 1.67 1.72 1.90 2.15 2.37 2.67 2.84 2.92 2.90 2.98 3.20 3.52 3.57 3.40 3.27 3.33 3.10 2.81 2.54
0.05 0.05 0.06 0.07 0.06 0.05 0.07 0.09 0.16 0.23 0.36 0.79 0.68 0.77 1.25 1.44 1.30 1.23 1.12 1.05 1.13 1.08 1.21 1.42 1.53 1.59 1.64 1.73 1.98 2.22 2.46 2.48 2.59 2.65 2.65 2.72 2.93 3.10 2.97 2.82 2.83 2.70 2.58 2.46
0.14 0.12 0.10 0.07 0.07 0.07 0.09 0.17 0.57 0.99 1.17 1.13 0.70 0.82 1.30 1.18 1.02 1.02 1.03 1.08 1.11 1.05 1.03 1.22 1.42 1.43 1.57 1.69 1.81 1.95 2.11 2.22 2.24 2.28 2.22 2.18 2.28 2.46 2.46 2.36 2.40 2.31 2.12 2.01
0.23 0.25 0.17 0.10 0.09 0.11 0.15 0.25 0.72 1.05 1.04 1.02 0.87 1.24 1.43 1.01 0.94 0.94 0.87 0.85 0.86 0.80 0.81 0.92 1.08 1.19 1.33 1.49 1.57 1.69 1.83 1.97 2.05 2.10 2.11 2.08 2.06 2.13 2.22 2.32 2.19 2.13 1.90 1.75
0.16 0.18 0.13 0.09 0.08 0.12 0.24 0.31 0.35 0.57 0.70 1.05 1.28 1.51 1.32 1.02 1.05 0.99 0.95 0.86 0.86 0.85 0.84 0.82 0.90 1.01 1.06 1.16 1.27 1.38 1.53 1.70 1.87 1.87 2.00 1.98 1.85 1.93 2.12 2.23 2.15 2.05 2.02 1.89
0.08 0.11 0.13 0.10 0.12 0.16 0.19 0.24 0.32 0.48 0.74 1.07 1.26 1.66 1.87 1.57 1.37 1.11 1.13 1.03 0.96 0.87 0.76 0.74 0.76 0.79 0.78 0.90 1.17 1.30 1.46 1.62 1.68 1.65 1.60 1.52 1.59 1.77 1.93 1.94 1.88 2.00 2.06 2.07
0.08 0.09 0.13 0.16 0.16 0.18 0.21 0.24 0.31 0.40 0.51 0.84 1.27 1.50 1.32 1.33 1.27 1.23 1.11 1.05 0.97 0.86 0.73 0.71 0.82 0.84 0.83 0.91 1.11 1.15 1.22 1.42 1.49 1.47 1.36 1.35 1.42 1.52 1.62 1.66 1.67 1.81 1.89 1.97
0.10 0.11 0.18 0.23 0.19 0.17 0.19 0.23 0.33 0.51 0.56 0.69 1.02 1.26 0.89 1.00 1.02 0.89 0.85 0.85 0.75 0.73 0.67 0.65 0.77 0.93 1.06 1.18 1.13 1.02 1.06 1.10 1.22 1.27 1.27 1.33 1.35 1.32 1.32 1.38 1.49 1.57 1.63 1.67
0.13 0.17 0.32 0.52 0.52 0.32 0.26 0.22 0.26 0.34 0.45 0.55 0.86 1.16 0.95 0.94 1.02 0.93 0.89 0.88 0.78 0.72 0.68 0.71 0.82 0.88 0.92 1.08 1.22 1.04 1.00 1.08 1.19 1.25 1.32 1.42 1.44 1.36 1.31 1.35 1.40 1.39 1.33 1.36
0.12 0.14 0.27 0.53 0.47 0.36 0.32 0.28 0.30 0.36 0.47 0.52 0.61 0.91 1.03 1.02 0.99 0.97 0.95 0.85 0.82 0.76 0.65 0.69 0.84 1.00 1.01 1.00 1.09 1.01 0.98 1.05 1.20 1.43 1.66 1.68 1.61 1.54 1.46 1.34 1.32 1.30 1.24 1.31
0.13 0.12 0.14 0.20 0.26 0.34 0.37 0.30 0.28 0.29 0.33 0.50 0.51 0.68 0.91 0.98 0.90 0.93 0.98 0.77 0.69 0.76 0.73 0.67 0.79 0.98 1.07 1.10 1.10 1.04 1.08 1.14 1.30 1.55 1.71 1.79 1.82 1.74 1.65 1.51 1.38 1.32 1.33 1.31
0.21 0.19 0.20 0.22 0.30 0.36 0.36 0.31 0.25 0.23 0.24 0.32 0.43 0.64 0.73 0.69 0.77 0.81 0.79 0.77 0.78 0.86 0.83 0.76 0.78 0.85 1.02 1.11 1.17 1.19 1.26 1.31 1.39 1.42 1.48 1.64 1.74 1.74 1.67 1.48 1.39 1.43 1.41 1.38
0.35 0.35 0.31 0.34 0.35 0.42 0.46 0.36 0.30 0.27 0.25 0.36 0.57 0.76 0.73 0.71 0.79 0.75 0.69 0.69 0.82 0.88 0.79 0.75 0.79 0.83 0.90 0.95 1.04 1.28 1.30 1.27 1.29 1.37 1.49 1.65 1.68 1.64 1.57 1.41 1.39 1.41 1.40 1.41
0.33 0.42 0.43 0.45 0.59 0.74 0.51 0.31 0.31 0.35 0.38 0.46 0.58 0.62 0.64 0.63 0.69 0.73 0.66 0.63 0.65 0.71 0.69 0.71 0.78 0.85 0.86 0.83 0.82 0.94 1.08 1.20 1.27 1.33 1.42 1.53 1.56 1.61 1.66 1.59 1.48 1.49 1.49 1.44
0.31 0.46 0.52 0.59 0.77 0.66 0.45 0.39 0.42 0.50 0.59 0.61 0.65 0.65 0.65 0.67 0.75 0.86 0.73 0.65 0.60 0.59 0.64 0.75 0.87 0.85 0.83 0.82 0.83 0.92 1.08 1.22 1.37 1.42 1.45 1.46 1.56 1.71 1.75 1.63 1.58 1.61 1.59 1.49
0.37 0.46 0.65 0.73 0.92 0.87 0.67 0.51 0.45 0.59 1.01 0.76 0.71 0.73 0.75 0.79 0.99 1.06 0.80 0.71 0.69 0.70 0.74 0.71 0.71 0.71 0.76 0.87 0.96 1.03 1.20 1.41 1.51 1.53 1.60 1.66 1.69 1.81 1.93 1.95 1.89 1.80 1.76 1.69
0.80 0.77 0.74 0.86 1.00 0.86 0.63 0.52 0.60 1.04 1.29 0.94 0.87 0.85 0.85 0.95 0.93 0.88 0.79 0.70 0.69 0.72 0.75 0.75 0.80 0.81 0.86 0.91 1.08 1.28 1.39 1.48 1.55 1.60 1.63 1.81 1.90 2.01 2.17 2.34 2.25 2.17 2.09 2.05
1.05 1.11 1.08 1.11 1.27 1.26 0.77 0.65 0.96 1.22 1.04 1.05 1.06 1.00 1.00 0.89 0.75 0.74 0.77 0.72 0.67 0.69 0.81 0.89 1.00 1.03 0.96 0.98 1.12 1.30 1.41 1.49 1.64 1.68 1.75 1.81 1.95 2.04 2.19 2.56 2.55 2.57 2.57 2.40
1.17 1.30 1.41 1.40 1.41 1.15 1.00 1.05 1.09 1.15 1.12 1.13 1.00 0.87 0.89 0.86 0.81 0.84 0.92 0.90 0.79 0.74 0.84 0.90 1.04 1.12 1.15 1.22 1.36 1.54 1.59 1.65 1.72 1.87 1.99 2.03 2.11 2.28 2.39 2.55 2.60 2.64 2.61 2.48
1.13 1.04 1.39 1.53 1.42 1.29 1.17 1.06 1.11 1.27 1.21 1.09 0.94 0.89 0.90 0.90 0.82 0.77 0.81 0.87 0.86 0.82 0.91 1.01 1.10 1.29 1.40 1.46 1.59 1.74 1.84 1.93 2.03 2.16 2.26 2.30 2.33 2.35 2.41 2.57 2.59 2.60 2.58 2.45
1.10 1.09 1.42 1.68 1.61 1.59 1.39 1.10 1.02 1.06 1.03 0.93 0.95 0.92 0.91 0.96 0.90 0.80 0.77 0.79 0.87 0.99 1.08 1.15 1.28 1.43 1.49 1.59 1.69 1.81 2.02 2.21 2.28 2.28 2.28 2.27 2.30 2.42 2.51 2.50 2.50 2.55 2.59 2.57
1.30 1.30 1.60 1.91 1.68 1.64 1.54 1.25 1.09 0.97 0.91 0.91 1.04 1.06 0.96 0.96 0.98 0.93 0.92 0.93 0.98 1.06 1.18 1.30 1.41 1.52 1.60 1.76 1.90 2.00 2.18 2.40 2.57 2.51 2.42 2.42 2.49 2.54 2.53 2.50 2.45 2.49 2.42 2.38